Location: Julian California
(33.0790°N, 116.6010°W)
Time: 11:02:26
(UTC-07:00)

OAO 2 Rocket - Pass Details

Date: 19 May 2017
Orbit: 676 x 747 km, 35.0° (Epoch: 26 September)

Event Time Altitude Azimuth Distance (km) Brightness Sun altitude
Rises 20:16:23 0° 220° (SW) 3,009 6.7 -7.2°
Reaches altitude 10° 20:19:01 10° 209° (SSW) 2,103 5.8 -7.7°
Maximum altitude 20:23:11 28° 150° (SSE) 1,268 4.2 -8.4°
Drops below altitude 10° 20:27:26 10° 92° (E) 2,140 5.3 -9.2°
Enters shadow 20:28:14 - 88° (E) 2,401 5.6 -9.3°
